Weather History for Casper, WY

Change the Weather History Date:

Sunday, November 3, 2013

  Actual Average Record
Temperature  
Mean Temperature 4 °C 4 °C  
Max Temperature 10 °C 11 °C 18 °C (1978)
Min Temperature -3 °C -3 °C -16 °C (1967)
Degree Days  
Heating Degree Days 26 26  
Month to date heating degree days 75 77  
Since 1 July heating degree days 964 976  
Cooling Degree Days 0 0  
Month to date cooling degree days 0 0  
Year to date cooling degree days 618 422  
Moisture  
Dew Point -3 °C    
Average Humidity 63    
Maximum Humidity 92    
Minimum Humidity 34    
Precipitation  
Precipitation 0.25 mm 0.76 mm 1.12 mm (1956)
Month to date precipitation 0.01 0.09  
Year to date precipitation 13.71 11.36  
Snow  
Snow 0.00 cm 0.76 cm - ()
Month to date snowfall 0.0 0.9  
Since 1 July snowfall 21.2 10.1  
Since 1 September snowfall 21.2 10.1  
Snow Depth 0.00 cm    
Sea Level Pressure  
Sea Level Pressure 1005 hPa    
Wind  
Wind Speed 20 km/h (West)    
Max Wind Speed 48 km/h    
Max Gust Speed 61 km/h    
Visibility 14 kilometers    
Events Snow    
T = Trace of Precipitation, MM = Missing Value Source: NWS Daily Summary

Daily Weather History Graph

Daily Weather History Graph

Search for Another Location

Airport:

Trip Planner

Search our weather history database for the weather conditions in past years. The results will help you decide how hot, cold, wet, or windy it might be!

Date:

Astronomy

Nov. 03, 2013 Rise Set
Actual Time 6:43 AM MST 4:55 PM MST
Civil Twilight 6:13 AM MST 5:24 PM MST
Nautical Twilight 5:39 AM MST 5:58 PM MST
Astronomical Twilight 5:06 AM MST 6:31 PM MST
Moon 6:50 AM MST (11/3) 5:11 PM MST (11/3)
Length of Visible Light 11h 11m
Length of Day
10h 12m
New Moon, 0% of the Moon is Illuminated
Nov 3
New Moon
Nov 9
First Quarter
Nov 17
Full
Nov 25
Last Quarter
Dec 2
New

Hourly Weather History & Observations

Time (MST) Temp. Windchill Dew Point Humidity Pressure Visibility Wind Dir Wind Speed Gust Speed Precip Events Conditions
12:53 AM 8.9 °C - -6.1 °C 34% 1001.8 hPa 16.1 km SW 42.6 km/h / 11.8 m/s 64.8 km/h / 18.0 m/s N/A   Clear
1:53 AM 7.8 °C 3.1 °C -6.1 °C 37% 1001.8 hPa 16.1 km SW 38.9 km/h / 10.8 m/s - N/A   Clear
1:53 AM 7.8 °C 3.2 °C -5.6 °C 39% 1000.7 hPa 16.1 km SW 37.0 km/h / 10.3 m/s 53.7 km/h / 14.9 m/s N/A   Clear
2:53 AM 7.2 °C 2.7 °C -5.6 °C 40% 1000.2 hPa 16.1 km SW 33.3 km/h / 9.3 m/s 48.2 km/h / 13.4 m/s N/A   Clear
3:53 AM 6.1 °C 1.4 °C -5.6 °C 43% 1000.2 hPa 16.1 km SW 31.5 km/h / 8.7 m/s - N/A   Clear
4:53 AM 6.7 °C 2.5 °C -5.0 °C 43% 1000.0 hPa 16.1 km SW 27.8 km/h / 7.7 m/s - N/A   Clear
5:53 AM 7.2 °C 3.1 °C -5.0 °C 42% 999.9 hPa 16.1 km SW 27.8 km/h / 7.7 m/s - N/A   Clear
6:53 AM 7.2 °C 2.7 °C -5.0 °C 42% 1000.2 hPa 16.1 km SW 33.3 km/h / 9.3 m/s 51.9 km/h / 14.4 m/s N/A   Clear
7:53 AM 7.8 °C 3.6 °C -4.4 °C 42% 1000.0 hPa 16.1 km SSW 31.5 km/h / 8.7 m/s - N/A   Clear
8:53 AM 9.4 °C - -4.4 °C 38% 1000.6 hPa 16.1 km West 22.2 km/h / 6.2 m/s 37.0 km/h / 10.3 m/s N/A   Clear
9:04 AM 7.0 °C 3.2 °C -3.0 °C 49% 1003.3 hPa 16.1 km NW 24.1 km/h / 6.7 m/s - N/A   Clear
9:13 AM 6.0 °C 1.7 °C -2.0 °C 57% 1003.6 hPa 16.1 km NW 25.9 km/h / 7.2 m/s - N/A   Clear
9:53 AM 7.2 °C 3.8 °C -2.2 °C 52% 1001.2 hPa 16.1 km NNW 20.4 km/h / 5.7 m/s - N/A   Scattered Clouds
10:53 AM 7.8 °C 5.2 °C -2.2 °C 50% 1001.5 hPa 16.1 km NNW 14.8 km/h / 4.1 m/s - N/A   Mostly Cloudy
11:53 AM 7.2 °C 4.0 °C -2.2 °C 52% 1002.0 hPa 16.1 km NW 18.5 km/h / 5.1 m/s - N/A   Mostly Cloudy
12:53 PM 7.2 °C 3.6 °C -2.8 °C 49% 1002.5 hPa 16.1 km West 22.2 km/h / 6.2 m/s 37.0 km/h / 10.3 m/s N/A   Overcast
1:53 PM 5.0 °C 3.3 °C -0.6 °C 67% 1003.3 hPa 16.1 km NNW 7.4 km/h / 2.1 m/s - 0.0 mm   Overcast
2:53 PM 4.4 °C 0.8 °C 0.0 °C 73% 1003.4 hPa 16.1 km ENE 16.7 km/h / 4.6 m/s - N/A   Overcast
3:53 PM 3.9 °C -0.3 °C -0.6 °C 73% 1004.5 hPa 16.1 km NNE 20.4 km/h / 5.7 m/s - N/A   Overcast
4:53 PM 2.8 °C 0.7 °C -1.1 °C 76% 1005.6 hPa 16.1 km North 7.4 km/h / 2.1 m/s - N/A   Overcast
5:53 PM 3.3 °C 2.0 °C -3.9 °C 60% 1005.8 hPa 16.1 km SW 5.6 km/h / 1.5 m/s - 0.0 mm   Overcast
6:53 PM 2.8 °C 0.2 °C -3.9 °C 62% 1007.2 hPa 16.1 km North 9.3 km/h / 2.6 m/s - N/A   Overcast
7:53 PM -1.1 °C -6.9 °C -2.8 °C 88% 1008.9 hPa 16.1 km NNW 22.2 km/h / 6.2 m/s - N/A   Mostly Cloudy
8:12 PM -1.0 °C -7.3 °C -3.0 °C 86% 1009.4 hPa 16.1 km NNW 25.9 km/h / 7.2 m/s - N/A   Mostly Cloudy
8:53 PM -1.1 °C -7.2 °C -3.3 °C 85% 1010.3 hPa 16.1 km NNW 24.1 km/h / 6.7 m/s - N/A   Overcast
9:10 PM -2.0 °C -7.8 °C -3.0 °C 93% 1011.1 hPa 11.3 km NNW 20.4 km/h / 5.7 m/s - 0.0 mm Snow Light Snow
9:43 PM -2.0 °C -6.4 °C -3.0 °C 93% 1012.1 hPa 3.2 km WNW 13.0 km/h / 3.6 m/s - 0.3 mm Snow Light Snow
9:50 PM -2.0 °C - -3.0 °C 93% 1011.7 hPa 2.4 km Calm Calm - 0.3 mm Snow Light Snow
9:53 PM -2.2 °C - -3.3 °C 92% 1012.2 hPa 2.4 km Calm Calm - 0.3 mm Snow Light Snow
9:56 PM -2.0 °C -4.9 °C -3.0 °C 93% 1011.7 hPa 3.2 km WSW 7.4 km/h / 2.1 m/s - 0.0 mm Snow Light Snow
10:07 PM -2.0 °C - -3.0 °C 93% 1012.1 hPa 12.9 km Calm Calm - 0.0 mm   Overcast
10:44 PM -2.0 °C -4.9 °C -3.0 °C 93% 1012.4 hPa 14.5 km SSW 7.4 km/h / 2.1 m/s - 0.0 mm Snow Light Snow
10:53 PM -1.7 °C -4.5 °C -2.8 °C 92% 1012.8 hPa 16.1 km SSW 7.4 km/h / 2.1 m/s - 0.0 mm   Overcast